sat.trackr.live / text

‹ back to catalog

TIANMU-1 06

NORAD 55976 · 2023-039D

PAYLOAD ACTIVE UNKNOWN

§ Identity

Operator
Country
PRC
Launch date
2023-03-22
Launch site
JSC
Launch vehicle
Mass (kg)
RCS (m²)

Purposes: earth_obs

External: N2YO · Heavens-Above · Gunter

§ Orbital elements

Epoch: 2026-09-20T04:40:52.047840Z

Period
92.88 min
Inclination
97.5257°
Eccentricity
0.0003562
Mean motion
15.50306300 rev/d
Perigee alt
413.4 km
Apogee alt
418.3 km
Semi-major
6,794.0 km
B*
2.1683e-4
RAAN
81.4127°
Arg perigee
111.7582°
Mean anomaly
248.4048°
Rev number
19,555

§ Raw data

TIANMU-1 061 55976U 23039D   26263.19504685  .00012189  00000+0  21683-3 0  99992 55976  97.5257  81.4127 0003562 111.7582 248.4048 15.50306300195551

JSON: /api/v1/satellites/55976 · /tle

For live sub-satellite position, see the globe view (requires WebGL).

§ Visibility from observer

Set your observer location to see the next 7 days of passes ≥ 10°. The values pass through the URL so the page stays shareable.

No JS? Fill the form by hand. The geolocation button needs JavaScript.